sat.trackr.live / text

‹ back to catalog

2025-274C

NORAD 66652 · 2025-274C

PAYLOAD ACTIVE UNKNOWN

§ Identity

Operator
Country
SKOR
Launch date
2025-11-26
Launch site
NSC
Launch vehicle
Mass (kg)
RCS (m²)

External: N2YO · Heavens-Above · Gunter

§ Orbital elements

Epoch: 2026-05-25T01:40:07.760928Z

Period
96.45 min
Inclination
97.7479°
Eccentricity
0.0013368
Mean motion
14.92933846 rev/d
Perigee alt
579.5 km
Apogee alt
598.1 km
Semi-major
6,966.9 km
B*
1.9226e-4
RAAN
74.5529°
Arg perigee
76.8900°
Mean anomaly
283.3810°
Rev number
2,676

§ Raw data

2025-274C1 66652U 25274C   26145.06953427  .00001942  00000+0  19226-3 0  99972 66652  97.7479  74.5529 0013368  76.8900 283.3810 14.92933846 26768

JSON: /api/v1/satellites/66652 · /tle

For live sub-satellite position, see the globe view (requires WebGL).

§ Visibility from observer

Set your observer location to see the next 7 days of passes ≥ 10°. The values pass through the URL so the page stays shareable.

No JS? Fill the form by hand. The geolocation button needs JavaScript.